Location: Clifton Park
(41.4873°N, 81.8024°W)
Time: 12:24:25
(UTC+00:00)

STARLINK-37 - Pass Details

Date: 21 January 2020
Orbit: 528 x 531 km, 53.0° (Epoch: 28 February)

Event Time Altitude Azimuth Distance (km) Brightness Sun altitude
Exits shadow 09:40:19 14° 92° (E) 1,554 6.6 -35.0°
Drops below altitude 10° 09:41:08 10° 83° (E) 1,768 7.0 -34.8°
Enters shadow 10:44:20 -58° 232° (SW) 11,423 10.3 -23.0°
Maximum altitude 11:17:00 63° 325° (NW) 589 3.5 -17.0°
